Weather History for Auburn, AL

Change the Weather History Date:

Monday, November 19, 2012

  Actual Average Record
Temperature  
Mean Temperature 55 °F -  
Max Temperature 64 °F - 82 °F (1985)
Min Temperature 45 °F - 26 °F (1959)
Degree Days  
Heating Degree Days 10    
Month to date heating degree days 167  
Since 1 July heating degree days 234  
Growing Degree Days 4 (Base 50)    
Moisture  
Dew Point 45 °F    
Average Humidity 68    
Maximum Humidity 82    
Minimum Humidity 52    
Precipitation  
Precipitation 0.00 in - 2.90 in (1957)
Month to date precipitation 0.92  
Year to date precipitation 23.05  
Sea Level Pressure  
Sea Level Pressure 30.22 in    
Wind  
Wind Speed 7 mph (NNE)    
Max Wind Speed 12 mph    
Max Gust Speed -    
Visibility 10 miles    
Events      
T = Trace of Precipitation, MM = Missing Value Source: NWS Daily Summary

Daily Weather History Graph

Daily Weather History Graph

Search for Another Location

Airport:

Trip Planner

Search our weather history database for the weather conditions in past years. The results will help you decide how hot, cold, wet, or windy it might be!

Date:

Astronomy

Nov. 19, 2012 Rise Set
Actual Time 6:15 AM CST 4:38 PM CST
Civil Twilight 5:49 AM CST 5:04 PM CST
Nautical Twilight 5:19 AM CST 5:34 PM CST
Astronomical Twilight 4:50 AM CST 6:04 PM CST
Moon 11:25 AM CST (11/19) 10:56 PM CST (11/19)
Length of Visible Light 11h 15m
Length of Day
10h 22m
Waxing Crescent, 41% of the Moon is Illuminated
Nov 19
Waxing Crescent
Nov 20
First Quarter
Nov 28
Full
Dec 6
Last Quarter
Dec 13
New

Hourly Weather History & Observations

Time (CST) Temp. Windchill Dew Point Humidity Pressure Visibility Wind Dir Wind Speed Gust Speed Precip Events Conditions
12:15 AM 48.2 °F - 42.8 °F 82% 30.28 in 10.0 mi NE 9.2 mph - N/A   Clear
12:35 AM 48.2 °F - 42.8 °F 82% 30.27 in 10.0 mi NE 6.9 mph - N/A   Clear
12:55 AM 48.2 °F - 41.0 °F 76% 30.28 in 10.0 mi NNE 6.9 mph - N/A   Clear
1:15 AM 48.2 °F - 41.0 °F 76% 30.28 in 10.0 mi NE 8.1 mph - N/A   Clear
1:35 AM 48.2 °F - 41.0 °F 76% 30.27 in 10.0 mi NE 6.9 mph - N/A   Clear
1:55 AM 46.4 °F 43.5 °F 39.2 °F 76% 30.27 in 10.0 mi NE 5.8 mph - N/A   Clear
2:15 AM 46.4 °F 42.4 °F 39.2 °F 76% 30.27 in 10.0 mi NNE 8.1 mph - N/A   Clear
2:35 AM 46.4 °F 42.4 °F 39.2 °F 76% 30.26 in 10.0 mi NNE 8.1 mph - N/A   Clear
2:55 AM 46.4 °F 42.4 °F 41.0 °F 81% 30.26 in 10.0 mi NNE 8.1 mph - N/A   Clear
3:15 AM 46.4 °F 41.9 °F 39.2 °F 76% 30.26 in 10.0 mi NNE 9.2 mph - N/A   Clear
3:35 AM 46.4 °F 41.9 °F 39.2 °F 76% 30.26 in 10.0 mi NNE 9.2 mph - N/A   Clear
3:55 AM 46.4 °F 41.9 °F 39.2 °F 76% 30.26 in 10.0 mi NNE 9.2 mph - N/A   Clear
4:15 AM 46.4 °F 41.5 °F 39.2 °F 76% 30.25 in 10.0 mi NE 10.4 mph - N/A   Clear
4:35 AM 46.4 °F 41.9 °F 39.2 °F 76% 30.25 in 10.0 mi NNE 9.2 mph - N/A   Clear
4:55 AM 46.4 °F 42.9 °F 39.2 °F 76% 30.26 in 10.0 mi NNE 6.9 mph - N/A   Clear
5:15 AM 46.4 °F 42.4 °F 39.2 °F 76% 30.27 in 10.0 mi NNE 8.1 mph - N/A   Clear
5:35 AM 44.6 °F 39.2 °F 39.2 °F 81% 30.26 in 10.0 mi NNE 10.4 mph - N/A   Clear
5:55 AM 44.6 °F 39.7 °F 39.2 °F 81% 30.27 in 10.0 mi NNE 9.2 mph - N/A   Clear
6:15 AM 44.6 °F 39.7 °F 39.2 °F 81% 30.26 in 10.0 mi NE 9.2 mph - N/A   Clear
6:36 AM 44.6 °F 39.7 °F 39.2 °F 81% 30.27 in 10.0 mi NE 9.2 mph - N/A   Clear
6:55 AM 46.4 °F 41.5 °F 39.2 °F 76% 30.27 in 10.0 mi NE 10.4 mph - N/A   Clear
7:35 AM 50.0 °F - 39.2 °F 66% 30.27 in 10.0 mi NE 10.4 mph - N/A   Clear
7:55 AM 51.8 °F - 39.2 °F 62% 30.27 in 10.0 mi NE 11.5 mph - N/A   Clear
8:15 AM 53.6 °F - 41.0 °F 62% 30.27 in 10.0 mi NE 9.2 mph - N/A   Clear
8:35 AM 53.6 °F - 41.0 °F 62% 30.27 in 10.0 mi ENE 9.2 mph - N/A   Clear
8:55 AM 55.4 °F - 42.8 °F 63% 30.28 in 10.0 mi ENE 8.1 mph - N/A   Clear
9:15 AM 57.2 °F - 42.8 °F 59% 30.28 in 10.0 mi NE 10.4 mph - N/A   Clear
9:35 AM 57.2 °F - 44.6 °F 63% 30.27 in 10.0 mi ENE 8.1 mph - N/A   Clear
9:55 AM 59.0 °F - 44.6 °F 59% 30.27 in 10.0 mi NNW 4.6 mph - N/A   Clear
10:15 AM 60.8 °F - 44.6 °F 55% 30.27 in 10.0 mi North 5.8 mph - N/A   Clear
10:35 AM 60.8 °F - 44.6 °F 55% 30.26 in 10.0 mi North 6.9 mph - N/A   Clear
10:55 AM 60.8 °F - 44.6 °F 55% 30.25 in 10.0 mi NNW 4.6 mph - N/A   Clear
11:15 AM 60.8 °F - 46.4 °F 59% 30.24 in 10.0 mi North 5.8 mph - N/A   Clear
11:35 AM 62.6 °F - 46.4 °F 55% 30.23 in 10.0 mi NNW 9.2 mph - N/A   Clear
11:55 AM 64.4 °F - 46.4 °F 52% 30.22 in 10.0 mi NNW 6.9 mph - N/A   Clear
12:16 PM 62.6 °F - 46.4 °F 55% 30.21 in 10.0 mi North 8.1 mph - N/A   Clear
12:35 PM 62.6 °F - 46.4 °F 55% 30.21 in 10.0 mi North 6.9 mph - N/A   Clear
12:55 PM 62.6 °F - 46.4 °F 55% 30.20 in 10.0 mi NNE 6.9 mph - N/A   Clear
1:15 PM 64.4 °F - 48.2 °F 56% 30.19 in 10.0 mi NE 6.9 mph - N/A   Clear
1:35 PM 64.4 °F - 48.2 °F 56% 30.19 in 10.0 mi North 9.2 mph - N/A   Clear
1:55 PM 64.4 °F - 48.2 °F 56% 30.19 in 10.0 mi NNE 5.8 mph - N/A   Scattered Clouds
2:15 PM 64.4 °F - 48.2 °F 56% 30.19 in 10.0 mi NE 9.2 mph - N/A   Overcast
2:35 PM 64.4 °F - 48.2 °F 56% 30.19 in 10.0 mi North 5.8 mph - N/A   Overcast
2:55 PM 64.4 °F - 48.2 °F 56% 30.19 in 10.0 mi NNE 5.8 mph - N/A   Overcast
3:15 PM 64.4 °F - 48.2 °F 56% 30.18 in 10.0 mi North 5.8 mph - N/A   Overcast
3:35 PM 64.4 °F - 48.2 °F 56% 30.18 in 10.0 mi North 5.8 mph - N/A   Overcast
3:55 PM 64.4 °F - 48.2 °F 56% 30.18 in 10.0 mi NNE 5.8 mph - N/A   Overcast
4:15 PM 62.6 °F - 48.2 °F 59% 30.18 in 10.0 mi NNE 6.9 mph - N/A   Overcast
4:35 PM 62.6 °F - 48.2 °F 59% 30.18 in 10.0 mi NNE 6.9 mph - N/A   Overcast
4:55 PM 62.6 °F - 48.2 °F 59% 30.18 in 10.0 mi North 5.8 mph - N/A   Overcast
5:15 PM 62.6 °F - 48.2 °F 59% 30.17 in 10.0 mi NE 5.8 mph - N/A   Overcast
5:35 PM 60.8 °F - 48.2 °F 63% 30.16 in 10.0 mi NE 5.8 mph - N/A   Overcast
5:55 PM 60.8 °F - 48.2 °F 63% 30.16 in 10.0 mi ENE 4.6 mph - N/A   Overcast
6:15 PM 60.8 °F - 48.2 °F 63% 30.16 in 10.0 mi NNE 4.6 mph - N/A   Overcast
6:35 PM 60.8 °F - 48.2 °F 63% 30.16 in 10.0 mi NE 5.8 mph - N/A   Overcast
6:55 PM 60.8 °F - 48.2 °F 63% 30.17 in 10.0 mi North - - N/A   Overcast
7:15 PM 60.8 °F - 48.2 °F 63% 30.18 in 10.0 mi ENE 6.9 mph - N/A   Overcast
7:35 PM 60.8 °F - 50.0 °F 68% 30.18 in 10.0 mi NE 5.8 mph - N/A   Overcast
7:55 PM 59.0 °F - 50.0 °F 72% 30.18 in 10.0 mi ENE 5.8 mph - N/A   Overcast
8:15 PM 59.0 °F - 50.0 °F 72% 30.18 in 10.0 mi NE 5.8 mph - N/A   Overcast
8:35 PM - - - N/A% 30.19 in 10.0 mi NNE 4.6 mph - N/A   Overcast
8:55 PM 59.0 °F - 50.0 °F 72% 30.19 in 10.0 mi NE 4.6 mph - N/A   Overcast
9:15 PM 57.2 °F - 50.0 °F 77% 30.19 in 10.0 mi NNE 4.6 mph - N/A   Overcast
9:35 PM 57.2 °F - 50.0 °F 77% 30.19 in 10.0 mi NNE 3.5 mph - N/A   Overcast
9:55 PM 57.2 °F - 50.0 °F 77% 30.19 in 10.0 mi NNE 3.5 mph - N/A   Overcast
10:15 PM 57.2 °F - 50.0 °F 77% 30.18 in 10.0 mi NNE 3.5 mph - N/A   Overcast
10:35 PM 57.2 °F - 50.0 °F 77% 30.18 in 10.0 mi North 3.5 mph - N/A   Overcast
10:55 PM 57.2 °F - 50.0 °F 77% 30.17 in 10.0 mi North 3.5 mph - N/A   Overcast
11:15 PM 57.2 °F - 51.8 °F 82% 30.17 in 10.0 mi North 4.6 mph - N/A   Overcast
11:35 PM 57.2 °F - 50.0 °F 77% 30.16 in 10.0 mi NNE 3.5 mph - N/A   Overcast
11:55 PM 57.2 °F - 50.0 °F 77% 30.15 in 10.0 mi North 5.8 mph - N/A   Overcast